Location: Ca�n Batista
(41.4099°N, 1.7752°E)
Time: 14:54:25
(UTC+00:00)

Cosmos 1777 Rocket - Pass Details

Date: 03 March 2021
Orbit: 759 x 775 km, 74.0° (Epoch: 21 April)

Event Time Altitude Azimuth Distance (km) Brightness Sun altitude
Rises 20:10:43 0° 337° (NNW) 3,243 7.8 -27.7°
Reaches altitude 10° 20:13:07 10° 334° (NNW) 2,310 7.0 -28.1°
Maximum altitude 20:18:17 63° 254° (WSW) 853 4.3 -29.0°
Enters shadow 20:18:23 63° 247° (WSW) 854 4.3 -29.0°
